Printer-friendly version

IAU Minor Planet Center

Minor Planet Center

MPEC 2001-C34: 2001 CB32

The following Minor Planet Electronic Circular may be linked-to from your own Web pages, but must not otherwise be redistributed electronically.


Read MPEC 2001-C33 Read MPEC 2001-C35


M.P.E.C. 2001-C34                                Issued 2001 Feb. 14, 19:16 UT

     The Minor Planet Electronic Circulars contain information on unusual
         minor planets and routine data on comets.  They are published
   on behalf of Commission 20 of the International Astronomical Union by the
          Minor Planet Center, Smithsonian Astrophysical Observatory,
                          Cambridge, MA 02138, U.S.A.

             Prepared using the Tamkin Foundation Computer Network

                              MPC@CFA.HARVARD.EDU
          URL http://cfa-www.harvard.edu/iau/mpc.html  ISSN 1523-6714

                                   2001 CB32

Observations:
     K01C32B* C2001 02 06.08900 02 50 16.70 +64 05 37.9          17.2        704
     K01C32B  C2001 02 06.10445 02 50 41.31 +64 06 30.9          17.5        704
     K01C32B  C2001 02 06.12104 02 51 07.65 +64 07 28.6          17.0        704
     K01C32B  C2001 02 12.16796 05 20 48.54 +64 29 23.9          16.8        704
     K01C32B  C2001 02 12.18250 05 21 05.39 +64 28 51.7          17.0        704
     K01C32B  C2001 02 12.19884 05 21 24.29 +64 28 14.9          16.9        704
     K01C32B  C2001 02 12.21350 05 21 41.26 +64 27 41.8          17.1        704
     K01C32B  C2001 02 13.00147 05 36 33.10 +63 56 24.9                      557
     K01C32B  C2001 02 13.00325 05 36 35.04 +63 56 20.0                      557
     K01C32B  C2001 02 13.00413 05 36 35.97 +63 56 17.7                      557
     K01C32B  C2001 02 13.00502 05 36 36.88 +63 56 15.5                      557
     K01C32B  C2001 02 13.16895 05 39 35.66 +63 49 42.4          16.8        704
     K01C32B  C2001 02 13.16904 05 39 35.77 +63 49 42.1          16.3        704
     K01C32B  C2001 02 13.18259 05 39 49.91 +63 49 06.8          16.9        704
     K01C32B  C2001 02 13.18268 05 39 49.93 +63 49 06.4          16.3        704
     K01C32B  C2001 02 13.19624 05 40 04.10 +63 48 30.6          17.0        704
     K01C32B  C2001 02 13.19633 05 40 04.15 +63 48 30.6          16.5        704
     K01C32B  C2001 02 13.20988 05 40 18.30 +63 47 54.5          17.4        704
     K01C32B  C2001 02 13.20998 05 40 18.27 +63 47 54.7          17.0        704
     K01C32B  C2001 02 13.22358 05 40 32.57 +63 47 17.5          16.9        704
     K01C32B  C2001 02 13.22367 05 40 32.52 +63 47 17.9          16.7        704
     K01C32B  C2001 02 13.73819 05 49 26.76 +63 24 19.7          16.5 V      104
     K01C32B  C2001 02 13.73951 05 49 27.99 +63 24 16.4                      104
     K01C32B  C2001 02 13.74073 05 49 29.18 +63 24 12.7                      104
     K01C32B  C2001 02 13.74370 05 49 32.05 +63 24 04.8                      104
     K01C32B  C2001 02 13.88691 05 51 50.94 +63 17 24.1                      118
     K01C32B  C2001 02 13.88935 05 51 53.34 +63 17 17.0                      118
     K01C32B  C2001 02 13.89138 05 51 55.24 +63 17 11.0          16.7 R      118
     K01C32B  C2001 02 13.90742 05 52 11.07 +63 16 24.9                      557
     K01C32B  C2001 02 13.90868 05 52 12.19 +63 16 21.4          17.5 V      557
     K01C32B  C2001 02 14.72160 06 04 59.42 +62 37 13.9                      557
     K01C32B  C2001 02 14.72249 06 05 00.21 +62 37 11.4                      557
     K01C32B  C2001 02 14.72517 06 05 02.54 +62 37 03.6                      557
     K01C32B  C2001 02 14.72608 06 05 03.36 +62 37 00.9                      557
     K01C32B  C2001 02 14.73059 06 05 07.37 +62 36 48.1          16.8 R      046
     K01C32B  C2001 02 14.73140 06 05 08.09 +62 36 45.9                      046
     K01C32B  C2001 02 14.73213 06 05 08.67 +62 36 43.4                      046
     K01C32B  C2001 02 14.73273 06 05 09.20 +62 36 41.9                      046
     K01C32B  C2001 02 14.73351 06 05 09.97 +62 36 39.9                      046

Observer details:
046 Klet.  Observer M. Tichy.  0.57-m f/5.2 reflector + CCD.
104 San Marcello Pistoiese.  Observers L. Tesi, A. Boattini, M. Tombelli.
    Measurers G. Forti, L. Tesi, A. Boattini, M. Tombelli.  0.40-m f/5
    reflector + CCD.
118 Modra.  Observers A. Galad, P. Koleny.  0.6-m f/5.5 reflector + CCD.
557 Ondrejov.  Observers P. Pravec, L. Sarounova.  0.65-m f/3.6 reflector + CCD.
704 Lincoln Laboratory ETS, New Mexico.  Observers M. Blythe, F. Shelly,
    M. Bezpalko, R. Huber, L. Manguso, S. Adams.  Measurers J. Stuart,
    R. Sayer, J. B. Evans, H. Viggh.  1.0-m f/2.15 reflector + CCD.

Orbital elements:
2001 CB32
Epoch 2001 Jan. 31.0 TT = JDT 2451940.5                 Spahr
M  19.58446              (2000.0)            P               Q
n   0.42377427     Peri.  329.88617     +0.68929531     -0.70618283
a   1.7554144      Node    75.99801     +0.69352977     +0.57860395
e   0.6085259      Incl.    9.59892     +0.20949566     +0.40807263
P   2.33           H   18.1           G   0.15
From 39 observations 2001 Feb. 6-14.

Ephemeris:
2001 CB32                a,e,i = 1.76, 0.61, 10                  q = 0.6872
Date    TT    R. A. (2000) Decl.     Delta      r     Elong.  Phase     V
2001 02 10    04 33.24   +65 24.6    0.224    1.081   109.1    59.6    17.2
2001 02 20    07 04.71   +57 56.7    0.313    1.181   121.0    45.9    17.7
2001 03 02    08 01.18   +49 59.4    0.423    1.279   124.5    39.7    18.3
2001 03 12    08 31.17   +43 58.6    0.547    1.374   123.7    37.0    19.0
2001 03 22    08 52.15   +39 17.5    0.683    1.467   120.6    35.8    19.6
2001 04 01    09 09.54   +35 26.5    0.830    1.556   116.3    35.1    20.1
2001 04 11    09 25.33   +32 08.1    0.986    1.642   111.4    34.6    20.6
2001 04 21    09 40.31   +29 12.0    1.149    1.724   106.2    34.0    21.0
2001 05 01    09 54.91   +26 31.1    1.319    1.803   100.7    33.3    21.4
2001 05 11    10 09.31   +24 01.3    1.494    1.878    95.3    32.4    21.7
2001 05 21    10 23.56   +21 39.8    1.671    1.950    89.7    31.3    22.0

Timothy B. Spahr             (C) Copyright 2001 MPC           M.P.E.C. 2001-C34

Read MPEC 2001-C33 Read MPEC 2001-C35


Our Web policy. Index to the CBAT/MPC/ICQ pages.


Valid HTML 4.01!